Погода в Новом Быкове

Украина / Черниговская область     50°35′47″N   31°40′23″E
темп.,
°C
ветер,
м/с
пор.,
м/с
влажн.,
%
обл.,
%
осадки,
мм/ч
давл.,
гПа
погр.,
м
28 ноября, вс
вс2823:00+6з23905 0.0 100364
02:00+4сз22885 0.0 100512
05:00+4вюв22875 0.0 100517
08:00+4юв34925 0.0 100550
11:00+7ююв357999 0.0 1005191
14:00+9юв477798 0.0 1004313
17:00+6юв4108967 0.0 1003192
20:00+7юв61485100 0.0 1002298
29 ноября, пн
пн2923:00+6ююв4119659 0.3 1002268
02:00+7юв4997100 0.3 1001224
05:00+7юв41099100 0.0 999273
08:00+8ююв51195100 0.0 997508
11:00+9юв51191100 0.0 994583
14:00+10ююв51194100 0.1 990514
17:00+9юв4797100 0.1 986231
20:00+9юз3897100 0.8 983236
30 ноября, вт
вт3023:00+8з91391100 0.4 983873
02:00+2з111994100 6.1 9891038
05:00+2з121976100 0.8 9921223
08:00+2з111773100 0.8 9951292
11:00+2з91670100 0.0 9971359
14:00+3зюз91470100 0.0 9971362
17:00+2з7137426 0.0 998853
20:00+1з7127487 0.1 999703
1 декабря, ср
ср123:00−1з612765 0.0 999674
02:00−1зюз51080100 0.0 999584
05:00−1юз61194100 0.2 998613
08:00−1юз61396100 1.8 997694
11:00+1з61293100 0.5 997812
14:00+1зсз61086100 0.7 9991033
17:00+1зсз4982100 0.1 1002591
20:000юз3592100 0.1 1003115
2 декабря, чт
чт223:00+1ююз4898100 0.0 1003391
02:000ююз61498100 1.2 1003629
05:00+3юз81584100 1.1 1001540
08:00+3юз7168287 1.1 1002478
11:00+5юз6138071 0.0 1003554
14:00+6юз5117891 0.0 1002469
17:00+4ююз4108670 0.0 1003205
20:00+3ююз410875 0.0 1004200